www.pogodaiklimat.ru

Погода и климат >> Архив погоды >> Россия >> Ямало-Ненецкий АО >> Антипаюта


АРХИВ ПОГОДЫ в Антипаюте

Время (UTC), дата Ветер
(напр.,м/с)
 
Видим.   Явления Облачность Т
(С)
Тd
(С)
f
(%)
Тe
(С)
Тes
(С)
Комфортность P
(гПа)
Po
(гПа)
Тmin
(С)
Tmax
(С)
R
(мм)
R24
(мм)
S
(см)
06 9.01 СВ 2 20 км 10/0
[Cs]
-30.1 -37.8 47 -38 -38 опасность
обморожения
1002.5 1002.0
12 9.01 С 3 20 км 6/0
[Ac trans]
-35.3 -39.1 68 -46 -46 опасность
обморожения
1003.7 1003.2
15 9.01 СВ 3 20 км ясно -35.2 -39.0 68 -46 -46 опасность
обморожения
1004.3 1003.8 -33.8
18 9.01 СЗ 2 20 км ясно -36.7 -40.7 66 -45 -45 опасность
обморожения
1005.3 1004.8
03 10.01 З 3 20 км ясно -34.6 -38.4 68 -45 -45 опасность
обморожения
1006.6 1006.1 -36.7 98
06 10.01 З 4 20 км 6/0
[As op]
-35.1 -38.9 68 -47 -47 опасность
обморожения
1007.3 1006.8
12 10.01 З 1 20 км 6/0
[Cs]
-37.9 -42.0 65 -43 -43 опасность
обморожения
1010.0 1009.5 -34.6
15 10.01 З 1 20 км 6/0
[Cs]
-37.9 -42.0 65 -43 -43 опасность
обморожения
1010.0 1009.5 -34.6
18 10.01 З 2 20 км ясно -36.9 -41.0 66 -46 -46 опасность
обморожения
1011.1 1010.6
03 11.01 СЗ 1 20 км ясно -39.3 -43.7 63 -44 -44 опасность
обморожения
1014.1 1013.6 -39.4 98
06 11.01 З 1 20 км ясно -40.2 -44.7 62 -45 -45 опасность
обморожения
1015.2 1014.7 -40.2
12 11.01 В 2 70 км ясно -40.6 -45.2 61 -50 -50 опасность
обморожения
1017.5 1017.0
15 11.01 ЮВ 3 20 км ясно -40.0 -44.4 63 -52 -52 опасность
обморожения
1017.6 1017.1 -40.2
18 11.01 ЮВ 4 20 км ясно -39.2 -43.1 66 -53 -53 опасность
обморожения
1018.0 1017.5
03 12.01 Ю 5 20 км ясно -36.2 -39.7 70 -50 -50 опасность
обморожения
1016.2 1015.7 -40.0
06 12.01 ЮЗ 6 20 км ясно -34.8 -37.7 75 -50 -50 опасность
обморожения
1014.4 1013.9
12 12.01 ЮЗ 7 2000 м слаб. снег {метель} 10/10 300 м
[St]
-27.4 -29.8 80 -41 -41 опасность
обморожения
1010.9 1010.4
15 12.01 Ю 8
{12}
2000 м слаб. снег {метель} 10/10 300 м
[St]
-25.4 -27.8 80 -39 -39 опасность
обморожения
1009.2 1008.7 -25.4 0.7
18 12.01 ЮЗ 9 2000 м слаб. снег {метель} 10/10 300 м
[St]
-24.3 -26.1 85 -39 -39 опасность
обморожения
1007.5 1007.0
03 13.01 Ю 12-15
{16}
500 м метель ?/? -19.8 -21.0 90 -34 -34 опасность
обморожения
1004.1 1003.6 -24.3 2 105
06 13.01 Ю 11-14
{16}
500 м метель ?/? -18.4 -19.6 90 -32 -32 опасность
обморожения
1001.9 1001.4
12 13.01 Ю 9-12
{13}
1000 м слаб. снег {метель} 10/0
[As op]
-17.4 -18.6 90 -30 -30 1001.4 1000.9
15 13.01 Ю 7-11
{12}
4000 м слаб. снег {метель} 10/0
[Cs]
-18.6 -20.5 85 -30 -30 1000.9 1000.4 -17.2 1
18 13.01 Ю 8
{12}
4000 м слаб. снег {метель} 10/0
[Cs]
-17.9 -19.8 85 -30 -30 1000.2 999.7
03 14.01 ЮЗ 3 4000 м слаб. снег 10/0
[As op]
-15.1 -16.4 90 -22 -22 999.3 998.8 -18.8 0.7 106
06 14.01 ЮЗ 4 20 км {снег} 6/0
[Ac trans]
-16.0 -17.9 85 -24 -24 999.4 998.9
09 14.01 ЮЗ 4 20 км {снег} 6/0
[Ac trans]
-16.0 -17.9 85 -24 -24 999.4 998.9
12 14.01 ЮВ 4 20 км {снег} 10/10 300 м
[Sc]
-11.0 -12.1 92 -18 -18 999.5 999.1
15 14.01 ЮВ 5 20 км ясно -8.1 -8.9 94 -16 -16 998.7 998.3 -8.3 0.6
18 14.01 ЮЗ 6
{11}
20 км ясно -11.6 -12.8 91 -20 -20 998.5 998.1
06 15.01 ЮВ 2 4000 м слаб. снег 10/10 600 м
[Sc]
-13.4 -14.7 90 -18 -18 999.0 998.5
09 15.01 ЮВ 2 4000 м слаб. снег 10/10 600 м
[Sc]
-13.4 -14.7 90 -18 -18 999.0 998.5
15 15.01 Ю 1 20 км {снег} 10/10 600 м
[Sc]
-16.1 -17.7 87 -19 -19 998.0 997.5
18 15.01 З 3 20 км 10/0
[As trans]
-17.8 -19.6 86 -25 -25 998.1 997.6 -12.9 0.4

 

Местоположение метеостанции Антипаюта (Ямало-Ненецкий АО, Россия): широта 69.08 долгота 76.85 высота над уровнем моря 3 м.

В архиве по умолчанию представлена погода в Антипаюте за последнюю неделю. Архивные данные за месяц целиком и за предыдущие месяцы, начиная с января 2011 года, Вы можете получить, выбрав интересующий диапазон дат из раскрывающегося списка и нажав кнопку "Ввод!".


*Определитесь, кто Вы:
робот инопланетянин человек

Внимание! Время в таблицах - всемирное. Для получения местного времени необходимо прибавить поправку, которая равна 5 ч.

Смотрите также архив погоды в соседних городах и на ближайших метеорологических станциях:

Погода в Тазовском (Ямало-Ненецкий АО, Россия) (195 км)
Погода в Сеяхе (Ямало-Ненецкий АО, Россия) (207 км)
Погода в Гыде (Ямало-Ненецкий АО, Россия) (209 км)
Погода в Новом Порте (Ямало-Ненецкий АО, Россия) (225 км)
Погода в Карауле (Красноярский край, Россия) (269 км)
Погода в Ныде (Ямало-Ненецкий АО, Россия) (318 км)
Погода в Тамбее (Ямало-Ненецкий АО, Россия) (327 км)
Погода в Новом Уренгое (Ямало-Ненецкий АО, Россия) (331 км)
Погода в Уренгое (Ямало-Ненецкий АО, Россия) (354 км)
Погода в Пангодах (Ямало-Ненецкий АО, Россия) (375 км)

Пояснения к столбцам:

Ветер - указаны скорость ветра в м/с - средняя за 10 мин, порывы в срок и между сроками (в фигурных скобках) и направление, откуда дует ветер: С - северный, СВ - северо-восточный, В - восточный, ЮВ - юго-восточный, Ю - южный, ЮЗ - юго-западный, З - западный, СЗ - северо-западный.
Видимость - горизонтальная дальность видимости в метрах или километрах. При видимости от 1 до 10 км при отсутствии осадков обычно наблюдается дымка, при ухудшении видимости до 1 км и менее - туман. В сухую погоду видимость может ухудшаться дымом, пылью или мглою.
Явления - указаны атмосферные явления, наблюдавшиеся в срок или в последний час перед сроком; фигурными скобками обозначены явления, наблюдавшиеся между сроками (за 1-3 часа до срока); квадратными скобками обозначены град или гололедные отложения с указанием их диаметра в мм.
Облачность - указаны через наклонную черту общая и нижняя облачность в баллах и высота нижней границы облаков в метрах; квадратными скобками обозначены формы облаков: Ci - перистые, Cs - перисто-слоистые, Cc - перисто-кучевые, Ac - высококучевые, As - высокослоистые, Sc - слоисто-кучевые, Ns - слоисто-дождевые, Cu - кучевые, Cb - кучево-дождевые. Подробнее классификацию облаков см. в Атласе облаков (PDF).
T - Температура воздуха - температура, измеренная на высоте 2 м над землей.
Td - Температура точки росы - температура, при понижении до которой содержащийся в воздухе водяной пар достигнет насыщения.
f - Относительная влажность воздуха - влажноcть воздуха, измеренная на высоте 2 м над землей.
Te - Эффективная температура - температура, которую ощущает одетый по сезону человек в тени. Характеристика душности погоды. При расчете учитывается влияние влажности воздуха и скорости ветра на теплоощущения человека.
Tes - Эффективная температура на солнце - температура, которую ощущает человек, с поправкой на солнечный нагрев. Характеристика знойности погоды. Зависит от высоты солнца над горизонтом, облачности и скорости ветра. Ночью, в пасмурную погоду, а также при ветре 12 м/с и более поправка равна нулю.
P - Атмосферное давление - приведенное к уровню моря атмосферное давление.
Po - Атмосферное давление - измеренное на уровне метеостанции атмосферное давление.
Tmin - Минимальная температура - минимум температуры воздуха на высоте 2 м над землей.
Tmax - Максимальная температура - максимум температуры воздуха на высоте 2 м над землей.
R - Количество осадков - Количество выпавших осадков за период времени, мм. При наведении курсора мыши на число - период времени, за который выпало указанное количество осадков.
R24 - Количество осадков - Количество выпавших осадков за 24 часа, мм.
S - Снежный покров - Высота снежного покрова, см. При наведении курсора мыши на число - состояние снежного покрова и степень покрытия местности в баллах.